Weather History for KSPW - March, 2014

Change the Weather History Date:

Sunday, March 16, 2014

  Actual Average Record
Temperature  
Mean Temperature 24 °F -  
Max Temperature 30 °F 41 °F 82 °F (2012)
Min Temperature 19 °F 23 °F 8 °F (1993)
Degree Days  
Heating Degree Days 40    
Moisture  
Dew Point 13 °F    
Average Humidity 61    
Maximum Humidity 74    
Minimum Humidity 45    
Precipitation  
Precipitation 0.00 in - - ()
Sea Level Pressure  
Sea Level Pressure 30.33 in    
Wind  
Wind Speed 10 mph (ENE)    
Max Wind Speed 18 mph    
Max Gust Speed -    
Visibility 10 miles    
Events      
Averages and records for this station are not official NWS values.
T = Trace of Precipitation, MM = Missing Value Source: NWS Daily Summary

Daily Weather History Graph

Daily Weather History Graph

Search for Another Location

Airport or City:

Trip Planner

Search our weather history database for the weather conditions in past years. The results will help you decide how hot, cold, wet, or windy it might be!

Date:

Astronomy

Mar. 16, 2014 Rise Set
Actual Time 7:31 AM CDT 7:28 PM CDT
Civil Twilight 7:02 AM CDT 7:56 PM CDT
Nautical Twilight 6:29 AM CDT 8:29 PM CDT
Astronomical Twilight 5:56 AM CDT 9:03 PM CDT
Moon 7:48 PM CDT (3/16) 7:14 AM CDT (3/16)
Length of Visible Light 12h 54m
Length of Day
11h 57m
Full, 100% of the Moon is Illuminated
Mar 16
Full
Mar 16
Full
Mar 23
Last Quarter
Mar 30
New
Apr 7
First Quarter

Hourly Weather History & Observations

Time (CDT) Temp. Windchill Dew Point Humidity Pressure Visibility Wind Dir Wind Speed Gust Speed Precip Events Conditions
12:53 AM 25.0 °F 13.6 °F 16.0 °F 69% 30.39 in 10.0 mi NNE 12.7 mph - N/A   Clear
1:53 AM 24.1 °F 12.5 °F 16.0 °F 71% 30.41 in 10.0 mi NNE 12.7 mph - N/A   Clear
2:53 AM 23.0 °F 10.6 °F 15.1 °F 72% 30.42 in 10.0 mi NNE 13.8 mph - N/A   Clear
3:53 AM 21.9 °F 9.2 °F 12.9 °F 68% 30.42 in 10.0 mi NNE 13.8 mph - N/A   Clear
4:53 AM 21.0 °F 9.9 °F 12.9 °F 71% 30.43 in 10.0 mi NNE 10.4 mph - N/A   Clear
5:53 AM 19.9 °F 8.6 °F 12.9 °F 74% 30.43 in 10.0 mi NE 10.4 mph - N/A   Clear
6:53 AM 19.9 °F 8.6 °F 10.9 °F 68% 30.43 in 10.0 mi NE 10.4 mph - N/A   Clear
7:53 AM 19.0 °F 8.2 °F 12.0 °F 74% 30.43 in 10.0 mi NNE 9.2 mph - N/A   Clear
8:53 AM 19.9 °F 6.2 °F 12.9 °F 74% 30.46 in 10.0 mi NE 15.0 mph - N/A   Clear
9:53 AM 21.9 °F 11.0 °F 12.0 °F 66% 30.47 in 10.0 mi NE 10.4 mph - N/A   Clear
10:53 AM 24.1 °F 16.0 °F 12.9 °F 62% 30.46 in 10.0 mi NE 6.9 mph - N/A   Clear
11:53 AM 25.0 °F 18.1 °F 12.0 °F 58% 30.43 in 10.0 mi ENE 5.8 mph - N/A   Clear
12:53 PM 27.0 °F 18.0 °F 10.9 °F 51% 30.40 in 10.0 mi ENE 9.2 mph - N/A   Clear
1:53 PM 27.0 °F - 10.0 °F 49% 30.36 in 10.0 mi Calm Calm - N/A   Clear
2:53 PM 28.0 °F - 10.9 °F 49% 30.33 in 10.0 mi Calm Calm - N/A   Clear
3:53 PM 30.0 °F - 12.0 °F 47% 30.30 in 10.0 mi Calm Calm - N/A   Clear
4:53 PM 30.0 °F 26.5 °F 10.9 °F 45% 30.27 in 10.0 mi SSW 3.5 mph - N/A   Clear
5:53 PM 30.0 °F - 10.9 °F 45% 30.24 in 10.0 mi Calm Calm - N/A   Clear
6:53 PM 30.0 °F 25.2 °F 10.9 °F 45% 30.22 in 10.0 mi SE 4.6 mph - N/A   Clear
7:53 PM 28.0 °F 20.0 °F 12.9 °F 53% 30.19 in 10.0 mi SSE 8.1 mph - N/A   Clear
8:53 PM 28.0 °F 18.6 °F 15.1 °F 58% 30.16 in 10.0 mi SSE 10.4 mph - N/A   Mostly Cloudy
9:53 PM 28.0 °F 16.1 °F 18.0 °F 66% 30.12 in 10.0 mi SSE 16.1 mph - N/A   Overcast
10:53 PM 28.0 °F 16.1 °F 19.9 °F 72% 30.09 in 10.0 mi South 16.1 mph - N/A   Mostly Cloudy
11:53 PM 28.0 °F 15.3 °F 19.0 °F 69% 30.05 in 10.0 mi South 18.4 mph - N/A   Overcast